TimeEST,TemperatureF,Dew PointF,Humidity,Sea Level PressureIn,VisibilityMPH,Wind Direction,Wind SpeedMPH,Gust SpeedMPH,PrecipitationIn,Events,Conditions,WindDirDegrees,DateUTC
12:53 AM,-9999,-9999,N/A,30.00,10.0,NNW,11.5,-,N/A,,Scattered Clouds,340,2012-11-21 05:53:00
1:53 AM,-9999,-9999,N/A,29.99,10.0,North,9.2,-,N/A,,Overcast,350,2012-11-21 06:53:00
2:53 AM,-9999,-9999,N/A,29.98,10.0,North,10.4,-,N/A,,Overcast,360,2012-11-21 07:53:00
3:53 AM,-9999,-9999,N/A,29.99,10.0,North,12.7,-,N/A,,Overcast,10,2012-11-21 08:53:00
4:53 AM,-9999,-9999,N/A,29.99,10.0,North,12.7,-,N/A,,Mostly Cloudy,10,2012-11-21 09:53:00
5:53 AM,66.2,55.0,67,30.00,10.0,North,13.8,20.7,N/A,,Clear,10,2012-11-21 10:53:00
6:53 AM,66.2,55.9,69,30.01,10.0,North,13.8,-,N/A,,Clear,350,2012-11-21 11:53:00
7:53 AM,66.2,57.0,72,30.03,10.0,North,13.8,-,N/A,,Clear,360,2012-11-21 12:53:00
8:53 AM,69.8,55.9,61,30.04,10.0,North,15.0,-,N/A,,Clear,350,2012-11-21 13:53:00
9:53 AM,69.8,57.9,66,30.05,10.0,North,15.0,-,N/A,,Clear,350,2012-11-21 14:53:00
10:53 AM,71.6,59.0,64,30.04,10.0,North,18.4,24.2,N/A,,Clear,360,2012-11-21 15:53:00
11:53 AM,71.6,59.0,64,30.03,10.0,North,17.3,-,N/A,,Clear,10,2012-11-21 16:53:00
12:53 PM,71.6,57.9,62,30.00,10.0,North,17.3,-,N/A,,Clear,360,2012-11-21 17:53:00
1:53 PM,71.6,55.9,58,29.97,10.0,NNE,13.8,20.7,N/A,,Clear,20,2012-11-21 18:53:00
2:53 PM,71.6,57.0,60,29.97,10.0,NNW,16.1,-,N/A,,Clear,340,2012-11-21 19:53:00
3:53 PM,71.6,57.0,60,29.97,10.0,NNW,15.0,-,N/A,,Clear,330,2012-11-21 20:53:00
4:53 PM,69.8,57.9,66,29.98,10.0,NNW,15.0,21.9,N/A,,Clear,330,2012-11-21 21:53:00
5:53 PM,69.8,55.9,61,29.99,10.0,NNW,16.1,23.0,N/A,,Partly Cloudy,340,2012-11-21 22:53:00
6:53 PM,69.8,57.9,66,29.99,10.0,NNW,13.8,-,N/A,,Clear,340,2012-11-21 23:53:00
7:53 PM,69.8,57.9,66,30.01,10.0,North,18.4,24.2,N/A,,Clear,350,2012-11-22 00:53:00
8:53 PM,68.0,59.0,73,30.02,10.0,North,16.1,25.3,N/A,,Clear,360,2012-11-22 01:53:00
9:53 PM,68.0,57.9,70,30.04,10.0,North,15.0,24.2,N/A,,Clear,360,2012-11-22 02:53:00
10:53 PM,-9999,-9999,N/A,30.06,10.0,North,15.0,21.9,N/A,,Clear,10,2012-11-22 03:53:00
11:53 PM,-9999,-9999,N/A,30.06,10.0,NNE,12.7,20.7,N/A,,Clear,20,2012-11-22 04:53:00